Location: La Silve
(44.2414°N, 5.8889°E)
Time: 08:40:41
(UTC+00:00)

CENTAUR R/B - Pass Details

Date: 11 April 2021
Orbit: 742 x 1446 km, 63.4° (Epoch: 18 April)

Event Time Altitude Azimuth Distance (km) Brightness Sun altitude
Rises 20:38:16 0° 319° (NW) 4,227 7.2 -23.5°
Reaches altitude 10° 20:41:03 10° 315° (NW) 3,336 6.4 -23.8°
Maximum altitude 20:48:59 51° 243° (WSW) 1,724 3.8 -24.9°
Enters shadow 20:53:38 28° 184° (S) 2,446 4.2 -25.5°
